User: anonymous   Login
Location: ??????
(41.3164°N, 22.6615°E)
Time: 12:41:51
(UTC+00:00)
Language:

Cosmos 1626 Rocket - Orbit

View from above orbital plane
View from above orbital plane
View from above satellite
View from above satellite

Ground track
Ground track

The orbit data is extracted from the following two-line orbital elements,

1 15495U 85009B   22025.79615545  .00000144  00000-0  14298-4 0  9996
2 15495  82.5222  50.1820 0020300 170.7364 189.4230 14.83953889978476
Epoch (UTC): 25 January 2022 19:06:27
Eccentricity: 0.0020300
inclination: 82.5222°
perigee height: 602 km
apogee height: 631 km
right ascension of ascending node: 50.1820°
argument of perigee: 170.7364°
revolutions per day: 14.83953889
mean anomaly at epoch: 189.4230°
orbit number at epoch: 97847

The dashed part of the orbit path shows where the satellite is in the earth's shadow,  

DLR